Previsão horária em Aalst

Hoje, 15 Janeiro, Sexta-feira

Tempo Temperatura Precipitação Vento Pressão Humidade
00:00 -1°C° 0 mm 5 m/s 764 mmHg 83%
01:00 -2°C° 0 mm 5 m/s 764 mmHg 83%
02:00 -2°C° 0 mm 4 m/s 765 mmHg 84%
03:00 -2°C° 0 mm 4 m/s 765 mmHg 85%
04:00 -3°C° 0 mm 4 m/s 766 mmHg 84%
05:00 -3°C° 0 mm 4 m/s 766 mmHg 84%
06:00 -2°C° 0 mm 3 m/s 767 mmHg 86%
07:00 -1°C° 0 mm 3 m/s 768 mmHg 85%
08:00 -1°C° 0 mm 3 m/s 768 mmHg 84%
09:00 -1°C° 0 mm 3 m/s 769 mmHg 84%
10:00 0°C° 0 mm 3 m/s 769 mmHg 78%
11:00 +1°C° 0 mm 3 m/s 769 mmHg 73%
12:00 +1°C° 0 mm 3 m/s 769 mmHg 68%
13:00 +1°C° 0 mm 3 m/s 770 mmHg 70%
14:00 +2°C° 0 mm 2 m/s 770 mmHg 72%
15:00 +2°C° 0 mm 2 m/s 770 mmHg 74%
16:00 +2°C° 0 mm 1 m/s 770 mmHg 77%
17:00 +2°C° 0 mm 1 m/s 770 mmHg 81%
18:00 +1°C° 0 mm 1 m/s 770 mmHg 85%
19:00 +1°C° 0 mm 1 m/s 770 mmHg 86%
20:00 +1°C° 0 mm 1 m/s 771 mmHg 87%
21:00 -1°C° 0 mm 0 m/s 771 mmHg 88%
22:00 0°C° 0 mm 1 m/s 771 mmHg 89%
23:00 0°C° 0 mm 1 m/s 771 mmHg 89%

Amanhã, 16 Janeiro, Sábado

Tempo Temperatura Precipitação Vento Pressão Humidade
00:00 0°C° 0 mm 1 m/s 771 mmHg 90%
01:00 0°C° 0 mm 1 m/s 770 mmHg 90%
02:00 0°C° 0 mm 1 m/s 770 mmHg 90%
03:00 0°C° 0 mm 1 m/s 769 mmHg 90%
04:00 -2°C° 0 mm 2 m/s 769 mmHg 90%
05:00 -2°C° 0 mm 2 m/s 769 mmHg 89%
06:00 -2°C° 0 mm 3 m/s 769 mmHg 89%
07:00 -2°C° 0 mm 3 m/s 768 mmHg 86%
08:00 -3°C° 0 mm 4 m/s 768 mmHg 84%
09:00 -3°C° 0 mm 4 m/s 767 mmHg 81%
10:00 -2°C° 0 mm 5 m/s 767 mmHg 79%
11:00 -2°C° 0 mm 5 m/s 766 mmHg 77%
12:00 -2°C° 0 mm 6 m/s 765 mmHg 75%
13:00 -2°C° 0.4 mm 6 m/s 764 mmHg 82%
14:00 -3°C° 0.4 mm 6 m/s 763 mmHg 88%
15:00 -3°C° 0.4 mm 6 m/s 762 mmHg 95%
16:00 -3°C° 1.1 mm 6 m/s 762 mmHg 95%
17:00 -2°C° 1.1 mm 5 m/s 761 mmHg 95%
18:00 -1°C° 1.1 mm 5 m/s 761 mmHg 95%
19:00 -1°C° 0.3 mm 4 m/s 760 mmHg 96%
20:00 -1°C° 0.3 mm 4 m/s 760 mmHg 96%
21:00 0°C° 0.3 mm 3 m/s 760 mmHg 97%
22:00 +1°C° 0 mm 2 m/s 760 mmHg 97%
23:00 +1°C° 0 mm 2 m/s 760 mmHg 98%

Depois de amanhã, 17 Janeiro, Domingo

Tempo Temperatura Precipitação Vento Pressão Humidade
00:00 +1°C° 0 mm 2 m/s 760 mmHg 99%
01:00 +2°C° 0 mm 2 m/s 760 mmHg 99%
02:00 +1°C° 0 mm 3 m/s 760 mmHg 99%
03:00 +2°C° 0 mm 3 m/s 760 mmHg 98%
04:00 +2°C° 0.1 mm 3 m/s 761 mmHg 97%
05:00 +2°C° 0.1 mm 3 m/s 761 mmHg 95%
06:00 +2°C° 0.1 mm 3 m/s 761 mmHg 94%
07:00 +2°C° 0 mm 3 m/s 762 mmHg 93%
08:00 +1°C° 0 mm 3 m/s 762 mmHg 93%
09:00 +1°C° 0 mm 3 m/s 763 mmHg 92%
10:00 +1°C° 0 mm 4 m/s 763 mmHg 91%
11:00 +3°C° 0 mm 4 m/s 764 mmHg 90%
12:00 +4°C° 0 mm 4 m/s 764 mmHg 89%
13:00 +3°C° 0 mm 4 m/s 764 mmHg 89%
14:00 +3°C° 0 mm 4 m/s 764 mmHg 89%
15:00 +3°C° 0 mm 3 m/s 764 mmHg 89%
16:00 +2°C° 0 mm 3 m/s 765 mmHg 90%
17:00 +2°C° 0 mm 3 m/s 766 mmHg 90%
18:00 +1°C° 0 mm 3 m/s 766 mmHg 91%
19:00 +1°C° 0 mm 3 m/s 766 mmHg 91%
20:00 +3°C° 0 mm 2 m/s 766 mmHg 91%
21:00 +3°C° 0 mm 2 m/s 767 mmHg 91%
22:00 +2°C° 0 mm 3 m/s 767 mmHg 92%
23:00 +1°C° 0 mm 3 m/s 767 mmHg 93%

18 Janeiro, Segunda-feira

Tempo Temperatura Precipitação Vento Pressão Humidade
00:00 +1°C° 0 mm 3 m/s 767 mmHg 94%
01:00 +1°C° 0 mm 3 m/s 767 mmHg 94%
02:00 +1°C° 0 mm 3 m/s 767 mmHg 95%
03:00 0°C° 0 mm 3 m/s 767 mmHg 95%
04:00 0°C° 0 mm 3 m/s 767 mmHg 95%
05:00 0°C° 0 mm 3 m/s 767 mmHg 95%
06:00 0°C° 0 mm 3 m/s 767 mmHg 95%
07:00 0°C° 0 mm 3 m/s 767 mmHg 95%
08:00 0°C° 0 mm 3 m/s 767 mmHg 94%
09:00 0°C° 0 mm 3 m/s 767 mmHg 93%
10:00 0°C° 0 mm 4 m/s 767 mmHg 92%
11:00 +1°C° 0 mm 4 m/s 767 mmHg 90%
12:00 +3°C° 0 mm 4 m/s 767 mmHg 88%
13:00 +3°C° 0 mm 4 m/s 767 mmHg 89%
14:00 +3°C° 0 mm 3 m/s 767 mmHg 90%
15:00 +3°C° 0 mm 3 m/s 767 mmHg 91%
16:00 +1°C° 0 mm 4 m/s 767 mmHg 92%
17:00 +1°C° 0 mm 4 m/s 766 mmHg 92%
18:00 0°C° 0 mm 5 m/s 766 mmHg 93%
19:00 0°C° 0 mm 5 m/s 766 mmHg 92%
20:00 0°C° 0 mm 5 m/s 766 mmHg 90%
21:00 0°C° 0 mm 5 m/s 765 mmHg 89%
22:00 -1°C° 0 mm 6 m/s 765 mmHg 87%
23:00 -1°C° 0 mm 6 m/s 764 mmHg 84%

19 Janeiro, Terça-feira

Tempo Temperatura Precipitação Vento Pressão Humidade
00:00 0°C° 0 mm 7 m/s 764 mmHg 81%
01:00 0°C° 0 mm 7 m/s 763 mmHg 80%
02:00 0°C° 0 mm 7 m/s 762 mmHg 78%
03:00 0°C° 0 mm 8 m/s 761 mmHg 77%
04:00 0°C° 0.1 mm 8 m/s 761 mmHg 79%
05:00 0°C° 0.1 mm 8 m/s 760 mmHg 81%
06:00 0°C° 0.1 mm 8 m/s 760 mmHg 83%
07:00 0°C° 0 mm 8 m/s 760 mmHg 85%
08:00 0°C° 0 mm 8 m/s 759 mmHg 86%
09:00 +1°C° 0 mm 8 m/s 759 mmHg 88%
10:00 +1°C° 0 mm 8 m/s 759 mmHg 87%
11:00 +2°C° 0 mm 8 m/s 758 mmHg 87%
12:00 +2°C° 0 mm 8 m/s 758 mmHg 87%
13:00 +4°C° 0 mm 7 m/s 757 mmHg 87%
14:00 +4°C° 0 mm 7 m/s 757 mmHg 88%
15:00 +4°C° 0 mm 7 m/s 756 mmHg 88%
16:00 +4°C° 0 mm 8 m/s 756 mmHg 88%
17:00 +4°C° 0 mm 8 m/s 756 mmHg 88%
18:00 +4°C° 0 mm 8 m/s 756 mmHg 88%
19:00 +4°C° 0 mm 8 m/s 755 mmHg 88%
20:00 +5°C° 0 mm 8 m/s 754 mmHg 87%
21:00 +5°C° 0 mm 8 m/s 754 mmHg 87%
22:00 +5°C° 0 mm 9 m/s 753 mmHg 86%
23:00 +5°C° 0 mm 9 m/s 753 mmHg 84%

20 Janeiro, Quarta-feira

Tempo Temperatura Precipitação Vento Pressão Humidade
00:00 +3°C° 0 mm 10 m/s 752 mmHg 83%
01:00 +5°C° 0.1 mm 10 m/s 751 mmHg 82%
02:00 +5°C° 0.1 mm 10 m/s 751 mmHg 80%
03:00 +6°C° 0.1 mm 10 m/s 750 mmHg 79%
04:00 +6°C° 0.2 mm 10 m/s 750 mmHg 78%
05:00 +6°C° 0.2 mm 11 m/s 749 mmHg 77%
06:00 +6°C° 0.2 mm 11 m/s 749 mmHg 76%
07:00 +6°C° 0.1 mm 11 m/s 748 mmHg 76%
08:00 +6°C° 0.1 mm 11 m/s 748 mmHg 76%
09:00 +6°C° 0.1 mm 11 m/s 747 mmHg 75%
10:00 +7°C° 0 mm 11 m/s 746 mmHg 76%
11:00 +7°C° 0 mm 11 m/s 746 mmHg 76%
12:00 +8°C° 0 mm 12 m/s 745 mmHg 76%
13:00 +8°C° 0.7 mm 11 m/s 744 mmHg 78%
14:00 +7°C° 0.7 mm 11 m/s 744 mmHg 80%
15:00 +7°C° 0.7 mm 11 m/s 743 mmHg 81%
16:00 +6°C° 1.7 mm 10 m/s 743 mmHg 84%
17:00 +6°C° 1.7 mm 9 m/s 744 mmHg 86%
18:00 +5°C° 1.7 mm 7 m/s 744 mmHg 89%
19:00 +4°C° 1.1 mm 6 m/s 744 mmHg 88%
20:00 +4°C° 1.1 mm 6 m/s 745 mmHg 87%
21:00 +3°C° 1.1 mm 5 m/s 745 mmHg 86%
22:00 +3°C° 0.1 mm 6 m/s 746 mmHg 85%
23:00 +3°C° 0.1 mm 6 m/s 746 mmHg 85%
Mostrar mais